Torna al catalogo

CZ-6A DEB

AttivoPO
NORAD 61269·DEBRIS·🇨🇳 China

Lanciato Aug 6, 2024 da Taiyuan Satellite Launch Center

Loading…

Prossimi Passaggi (prossime 24 ore)

TLE

AggiornatoSource: Space-Track

Epoca: Sep 13, 2026, 00:59 UTC

1 61269U 24140SE  26256.04124245  .00003749  00000-0  12994-2 0  9998
2 61269  89.0523 268.4874 0027244 211.1296 148.8290 14.35281532106860

Traccia CZ-6A DEB in tempo reale con AllMySat

Download on the App Store